Location: Gro�sch�nbrunn
(49.5760°N, 11.8868°E)
Time: 04:00:54
(UTC+00:00)

Cosmos 2026 Rocket - Pass Details

Date: 18 September 2020
Orbit: 940 x 1000 km, 82.9° (Epoch: 18 October)

Event Time Altitude Azimuth Distance (km) Brightness Sun altitude
Rises 19:55:43 0° 349° (N) 3,714 7.7 -24.7°
Reaches altitude 10° 19:58:14 10° 348° (NNW) 2,768 7.0 -25.0°
Maximum altitude 20:04:36 76° 264° (W) 1,032 4.1 -25.8°
Enters shadow 20:06:56 42° 188° (S) 1,403 4.5 -26.1°
